Regional Weather Roundup
Issued by NWS

Home | Current Version | Previous Version | Graphics & Text | Print | Product List | Glossary On
Versions: 1 2 3 4 5 6 7 8 9 10 11 12 13 14 15 16 17 18 19 20 21 22 23 24 25 26 27 28 29 30 31 32 33 34 35 36 37 38 39 40 41 42 43 44 45 46 47 48 49 50
000
ASUS45 KBOU 241107
RWRCO

WEATHER ROUNDUP FOR COLORADO
NATIONAL WEATHER SERVICE DENVER/BOULDER CO
500 AM MDT SUN MAY 24 2015

NOTE: "FAIR" INDICATES FEW OR NO CLOUDS BELOW 12000 FEET WITH NO
SIGNIFICANT WEATHER AND/OR OBSTRUCTIONS TO VISIBILITY.

COZ001>005-013-030-031-241200-
...NORTHWEST COLORADO...

CITY           SKY/WX    TMP DP  RH WIND       PRES   REMARKS
CRAIG          CLOUDY    40  38  93 CALM      29.96F
HAYDEN         CLOUDY    39  34  81 SE7       29.96F
MEEKER         CLOUDY    37  35  92 CALM      29.98F
MOUNT WERNER   NOT AVBL
STEAMBOAT SPGS CLOUDY    37  35  94 CALM      29.97F
WALDEN         MOCLDY    32  30  93 SE6       29.90R WCI  26
$$

COZ006>008-011-241200-
...WEST CENTRAL VALLEYS...

CITY           SKY/WX    TMP DP  RH WIND       PRES   REMARKS
GRAND JUNCTION CLOUDY    46  42  86 SE6       29.96S
MONTROSE       CLOUDY    40  40 100 S5        30.01F
EAGLE          CLOUDY    37  36  93 CALM      30.02S
RIFLE          CLOUDY    44  39  82 CALM      29.97S
DELTA          CLOUDY    46  44  94 MISG      29.99F
NUCLA          CLOUDY    41  36  81 E3        30.04S
$$

COZ017>023-064>068-241200-
...SOUTHWEST COLORADO...

CITY           SKY/WX    TMP DP  RH WIND       PRES   REMARKS
DURANGO        LGT RAIN  41  40  96 S3        30.00F
CORTEZ         LGT RAIN  43  41  93 E3        30.00S FOG
PAGOSA SPRINGS DRIZZLE   40  39  95 S5        30.02F
TELLURIDE      MOCLDY    32  29  88 CALM      30.05S
WOLF CREEK PAS NOT AVBL
$$

COZ009-010-012-014-032>034-037-058>063-241200-
...CENTRAL COLORADO...

CITY           SKY/WX    TMP DP  RH WIND       PRES   REMARKS
ASPEN          MOCLDY    36  33  89 N3        29.99F
BUENA VISTA    MOCLDY    35  31  86 E5        30.00S WCI  31
COPPER MTN     LGT SNOW  28  21  74 S8        30.08S WCI  20
BERTHOUD PASS  FAIR      19  12  73 W15       30.09F WCI   5
COTTONWOOD PAS MOCLDY    36  28  75 SE6       30.03F
GUNNISON       PTCLDY    37  30  75 N5        30.04S
KREMMLING      CLOUDY    34  32  93 CALM      30.02S
LEADVILLE      CLOUDY    27  26  96 N5        30.03F WCI  22
SALIDA         PTCLDY    37  30  77 NW3       30.07S
SUNLIGHT       MOCLDY    30  30 100 CALM      30.11S
WILKERSON PASS CLOUDY    28  27  93 SW3       30.09S
$$

COZ069>075-241200-
...SAN LUIS VALLEY/SANGRE DE CRISTO MOUNTAINS...

CITY           SKY/WX    TMP DP  RH WIND       PRES   REMARKS
ALAMOSA        CLOUDY    39  31  72 E7        29.99F
LA VETA PASS   PTCLDY   N/A N/A N/A MISG      30.06F
SAGUACHE       CLOUDY    41  30  65 CALM      30.00S
$$

COZ035-036-038>040-241200-
...NORTHERN COLORADO FRONT RANGE...

CITY           SKY/WX    TMP DP  RH WIND       PRES   REMARKS
DENVER INTL AP PTCLDY    41  38  89 SW8       29.91F
DMNS CITY PARK   N/A     41  39  93 S3        29.91F
AURORA         PTCLDY    40  40  98 S8        29.93S
FRONT RANGE AP NOT AVBL
ERIE MUNI ARPT PTCLDY    38  37  96 CALM      29.91S
BOULDER MUN AP PTCLDY    41  36  81 S6        29.91S
CENTENNIAL     PTCLDY    40  37  89 S8        29.93S
BROOMFIELD     PTCLDY    41  36  81 W3        29.92F
FORT COLLINS   CLEAR     41  39  93 CALM      29.92S
LONGMONT       CLEAR     40  38  95 CALM      29.93S
$$

COZ041-046-047-076>085-087-088-241200-
...PIKES PEAK/PALMER DIVIDE AND SOUTHERN FOOTHILLS...

CITY           SKY/WX    TMP DP  RH WIND       PRES   REMARKS
COLO. SPRINGS  MOCLDY    43  39  86 E5        29.96S
A. F. ACADEMY  PTCLDY    36  35  97 N7        29.95S
ELLICOTT       NOT AVBL
FALCON         PTCLDY    37  36  95 CALM      29.97S
FORT CARSON    CLEAR     43  40  90 S2        29.94S
LIMON          PTCLDY    38  38 100 N3        29.92S FOG
MONUMENT HILL  NOT AVBL
TRINIDAD       CLOUDY    45  43  93 SW8       29.95F
$$

COZ042>045-048>051-090-091-241200-
...NORTHEAST COLORADO...

CITY           SKY/WX    TMP DP  RH WIND       PRES   REMARKS
GREELEY ARPT   CLEAR     41  37  87 NW6       29.91S
AKRON          FOG       47  47 100 SW7       29.90R VSB 1/2
BURLINGTON     CLOUDY    50  45  83 W5        29.90S
WRAY           MOCLDY    51  51 100 SE5       29.87R
STERLING       CLOUDY    50  50 100 CALM      29.89R
HOLYOKE        NOT AVBL
FORT MORGAN    MOCLDY    40  39  95 W3        29.91S
$$

COZ086-089-092>099-241200-
...SOUTHEAST COLORADO...

CITY           SKY/WX    TMP DP  RH WIND       PRES   REMARKS
PUEBLO         CLEAR     44  42  93 NW6       29.92S
LA JUNTA       CLOUDY    53  50  89 NW3       29.89S
LAMAR          CLOUDY    56  55  97 SE7       29.86F
SPRINGFIELD      N/A     54  54 100 S5        29.89F
$$



USA.gov is the U.S. government's official web portal to all federal, state and local government web resources and services.